Location: Banios
(43.0451°N, 0.2335°E)
Time: 09:17:26
(UTC+00:00)

A-11 Canister half - Pass Details

Date: 20 May 2021
Orbit: 1527 x 1681 km, 47.3° (Epoch: 22 June)

Event Time Altitude Azimuth Distance (km) Brightness Sun altitude
Rises 14:54:00 0° 293° (WNW) 4,845 12.1 46.3°
Reaches altitude 10° 14:57:50 10° 281° (W) 3,879 12.0 45.7°
Maximum altitude 15:05:14 25° 232° (SW) 2,920 11.8 44.4°
Drops below altitude 10° 15:12:46 10° 183° (S) 3,927 11.4 43.0°
Sets 15:16:43 0° 170° (S) 4,918 11.7 42.3°
